Russell, KS

7:40 PM CDT on September 29, 2016 (GMT -0500)
Russell Municipal

Weather History for KRSL - March, 2014

Change the Weather History Date:

Thursday, March 20, 2014

  Actual Average Record
Temperature  
Mean Temperature 50 °F -  
Max Temperature 72 °F 58 °F 85 °F (1953)
Min Temperature 30 °F 30 °F 10 °F (1958)
Degree Days  
Heating Degree Days 14    
Moisture  
Dew Point 17 °F    
Average Humidity 32    
Maximum Humidity 61    
Minimum Humidity 9    
Precipitation  
Precipitation 0.00 in - - ()
Sea Level Pressure  
Sea Level Pressure 29.93 in    
Wind  
Wind Speed 11 mph (SW)    
Max Wind Speed 21 mph    
Max Gust Speed 26 mph    
Visibility 10 miles    
Events      
Averages and records for this station are not official NWS values.
T = Trace of Precipitation, MM = Missing Value Source: NWS Daily Summary

Daily Weather History Graph

Daily Weather History Graph

Search for Another Location

Airport or City:

Trip Planner

Search our weather history database for the weather conditions in past years. The results will help you decide how hot, cold, wet, or windy it might be!

Date:

Astronomy

Mar. 20, 2014 Rise Set
Actual Time 7:38 AM CDT 7:47 PM CDT
Civil Twilight 7:12 AM CDT 8:13 PM CDT
Nautical Twilight 6:41 AM CDT 8:44 PM CDT
Astronomical Twilight 6:09 AM CDT 9:16 PM CDT
Moon No Moon Rise 9:48 AM CDT (3/20)
Length of Visible Light 13h 01m
Length of Day
12h 08m
Waning Gibbous, 84% of the Moon is Illuminated
Mar 20
Waning Gibbous
Mar 23
Last Quarter
Mar 30
New
Apr 7
First Quarter
Apr 15
Full

Hourly Weather History & Observations

Time (CDT) Temp. Windchill Dew Point Humidity Pressure Visibility Wind Dir Wind Speed Gust Speed Precip Events Conditions
12:53 AM 34.0 °F 27.2 °F 19.9 °F 56% 30.09 in 10.0 mi SSW 8.1 mph - N/A   Clear
1:53 AM 32.0 °F 24.2 °F 19.9 °F 61% 30.06 in 10.0 mi SSW 9.2 mph - N/A   Clear
2:53 AM 33.1 °F 24.4 °F 19.9 °F 59% 30.04 in 10.0 mi SSW 11.5 mph - N/A   Clear
3:53 AM 30.9 °F 23.5 °F 19.0 °F 61% 30.03 in 10.0 mi SW 8.1 mph - N/A   Clear
4:53 AM 34.0 °F 26.0 °F 19.9 °F 56% 30.00 in 10.0 mi SSW 10.4 mph - N/A   Clear
5:53 AM 35.1 °F 27.4 °F 19.9 °F 54% 30.00 in 10.0 mi SSW 10.4 mph - N/A   Clear
6:53 AM 37.9 °F 30.5 °F 21.9 °F 53% 29.98 in 10.0 mi South 11.5 mph - N/A   Clear
7:53 AM 39.9 °F 31.8 °F 21.9 °F 49% 29.97 in 10.0 mi SSW 15.0 mph - N/A   Clear
8:53 AM 42.1 °F 34.5 °F 21.9 °F 45% 30.00 in 10.0 mi WSW 15.0 mph - N/A   Clear
9:53 AM 46.9 °F - 21.9 °F 37% 29.99 in 10.0 mi SW 20.7 mph - N/A   Clear
10:53 AM 51.1 °F - 21.9 °F 32% 29.98 in 10.0 mi WSW 16.1 mph - N/A   Clear
11:53 AM 59.0 °F - 21.0 °F 23% 29.95 in 10.0 mi West 17.3 mph - N/A   Clear
12:53 PM 64.0 °F - 19.0 °F 18% 29.93 in 10.0 mi NW 15.0 mph 20.7 mph N/A   Clear
1:53 PM 68.0 °F - 15.1 °F 13% 29.91 in 10.0 mi WNW 13.8 mph 19.6 mph N/A   Clear
2:53 PM 70.0 °F - 12.9 °F 11% 29.86 in 10.0 mi WNW 13.8 mph 21.9 mph N/A   Clear
3:53 PM 71.1 °F - 12.0 °F 10% 29.85 in 10.0 mi NNW 15.0 mph 26.5 mph N/A   Clear
4:53 PM 70.0 °F - 9.0 °F 9% 29.84 in 10.0 mi NNW 13.8 mph 20.7 mph N/A   Clear
5:53 PM 69.1 °F - 10.9 °F 11% 29.84 in 10.0 mi WNW 9.2 mph - N/A   Clear
6:53 PM 68.0 °F - 12.0 °F 11% 29.82 in 10.0 mi SW 5.8 mph - N/A   Clear
7:53 PM 60.1 °F - 12.0 °F 15% 29.83 in 10.0 mi Calm Calm - N/A   Clear
8:53 PM 57.9 °F - 12.0 °F 16% 29.84 in 10.0 mi East 6.9 mph - N/A   Clear
9:53 PM 55.0 °F - 15.1 °F 21% 29.83 in 10.0 mi ESE 11.5 mph - N/A   Clear
10:53 PM 48.9 °F - 16.0 °F 27% 29.80 in 10.0 mi SE 13.8 mph - N/A   Clear
11:53 PM 51.1 °F - 16.0 °F 25% 29.78 in 10.0 mi SE 11.5 mph - N/A   Clear